When you browse on this site, cookies collect data to enhance your experience and personalize the content and advertising you see.
Visit our Privacy Policy to learn more. By continuing to use the site, you agree to this use of cookies and data.
  • In Romania
  • List of Countries
  • For 7 days
  • Water Temperature
  • Satellite Maps
  • Weather Map
  • Weather Widgets
  • user-avatar
    Login

    Hourly Weather Brussels

    Today, 19 February, Tuesday

    Time Temperature Precipitation Wind Pressure Humidity
    00:00 +7°C° 0.1 mm 3 mps 759 mmHg 90%
    01:00 +7°C° 0.2 mm 3 mps 759 mmHg 91%
    02:00 +7°C° 0.2 mm 3 mps 759 mmHg 92%
    03:00 +7°C° 0.2 mm 3 mps 759 mmHg 92%
    04:00 +7°C° 0 mm 3 mps 759 mmHg 93%
    05:00 +7°C° 0 mm 3 mps 760 mmHg 93%
    06:00 +5°C° 0 mm 3 mps 760 mmHg 94%
    07:00 +6°C° 0 mm 4 mps 760 mmHg 89%
    08:00 +6°C° 0 mm 4 mps 760 mmHg 84%
    09:00 +6°C° 0 mm 4 mps 761 mmHg 80%
    10:00 +7°C° 0 mm 5 mps 761 mmHg 75%
    11:00 +8°C° 0 mm 5 mps 761 mmHg 70%
    12:00 +9°C° 0 mm 5 mps 761 mmHg 65%
    13:00 +10°C° 0 mm 5 mps 761 mmHg 64%
    14:00 +10°C° 0 mm 5 mps 761 mmHg 63%
    15:00 +11°C° 0 mm 4 mps 761 mmHg 62%
    16:00 +10°C° 0 mm 4 mps 761 mmHg 65%
    17:00 +9°C° 0 mm 3 mps 762 mmHg 68%
    18:00 +9°C° 0 mm 2 mps 762 mmHg 72%
    19:00 +8°C° 0 mm 3 mps 762 mmHg 75%
    20:00 +7°C° 0 mm 3 mps 762 mmHg 79%
    21:00 +5°C° 0 mm 3 mps 762 mmHg 83%
    22:00 +5°C° 0 mm 3 mps 763 mmHg 83%
    23:00 +5°C° 0 mm 3 mps 763 mmHg 83%

    Tomorrow, 20 February, Wednesday

    Time Temperature Precipitation Wind Pressure Humidity
    00:00 +5°C° 0 mm 3 mps 763 mmHg 84%
    01:00 +5°C° 0 mm 3 mps 763 mmHg 81%
    02:00 +5°C° 0 mm 3 mps 762 mmHg 78%
    03:00 +5°C° 0 mm 4 mps 762 mmHg 75%
    04:00 +5°C° 0 mm 4 mps 762 mmHg 75%
    05:00 +5°C° 0 mm 4 mps 762 mmHg 76%
    06:00 +5°C° 0 mm 4 mps 762 mmHg 77%
    07:00 +5°C° 0 mm 5 mps 763 mmHg 77%
    08:00 +6°C° 0 mm 5 mps 763 mmHg 77%
    09:00 +6°C° 0 mm 5 mps 763 mmHg 77%
    10:00 +7°C° 0 mm 5 mps 763 mmHg 73%
    11:00 +8°C° 0 mm 5 mps 763 mmHg 69%
    12:00 +9°C° 0 mm 6 mps 763 mmHg 65%
    13:00 +10°C° 0 mm 5 mps 763 mmHg 62%
    14:00 +10°C° 0 mm 5 mps 763 mmHg 59%
    15:00 +12°C° 0 mm 5 mps 763 mmHg 57%
    16:00 +11°C° 0 mm 4 mps 764 mmHg 61%
    17:00 +10°C° 0 mm 4 mps 764 mmHg 66%
    18:00 +9°C° 0 mm 3 mps 764 mmHg 71%
    19:00 +8°C° 0 mm 3 mps 764 mmHg 73%
    20:00 +8°C° 0 mm 3 mps 765 mmHg 75%
    21:00 +7°C° 0 mm 3 mps 765 mmHg 77%
    22:00 +7°C° 0 mm 3 mps 765 mmHg 79%
    23:00 +5°C° 0 mm 3 mps 766 mmHg 81%

    Day after tomorrow, 21 February, Thursday

    Time Temperature Precipitation Wind Pressure Humidity
    00:00 +5°C° 0 mm 3 mps 766 mmHg 83%
    01:00 +5°C° 0 mm 3 mps 766 mmHg 84%
    02:00 +5°C° 0 mm 3 mps 766 mmHg 86%
    03:00 +4°C° 0 mm 3 mps 766 mmHg 87%
    04:00 +4°C° 0 mm 3 mps 767 mmHg 88%
    05:00 +4°C° 0 mm 3 mps 767 mmHg 88%
    06:00 +4°C° 0 mm 3 mps 767 mmHg 89%
    07:00 +5°C° 0 mm 3 mps 768 mmHg 86%
    08:00 +7°C° 0 mm 3 mps 768 mmHg 82%
    09:00 +8°C° 0 mm 3 mps 768 mmHg 79%
    10:00 +9°C° 0 mm 3 mps 768 mmHg 74%
    11:00 +11°C° 0 mm 3 mps 769 mmHg 70%
    12:00 +12°C° 0 mm 3 mps 769 mmHg 66%
    13:00 +12°C° 0 mm 3 mps 769 mmHg 65%
    14:00 +13°C° 0 mm 3 mps 769 mmHg 64%
    15:00 +13°C° 0 mm 3 mps 769 mmHg 63%
    16:00 +13°C° 0 mm 2 mps 769 mmHg 69%
    17:00 +10°C° 0 mm 2 mps 769 mmHg 75%
    18:00 +10°C° 0 mm 1 mps 770 mmHg 81%
    19:00 +10°C° 0 mm 1 mps 770 mmHg 82%
    20:00 +8°C° 0 mm 2 mps 771 mmHg 83%
    21:00 +8°C° 0 mm 2 mps 771 mmHg 85%
    22:00 +7°C° 0 mm 2 mps 772 mmHg 85%
    23:00 +7°C° 0 mm 2 mps 772 mmHg 86%

    22 February, Friday

    Time Temperature Precipitation Wind Pressure Humidity
    00:00 +7°C° 0 mm 2 mps 772 mmHg 87%
    01:00 +7°C° 0 mm 2 mps 773 mmHg 87%
    02:00 +6°C° 0 mm 2 mps 773 mmHg 87%
    03:00 +7°C° 0 mm 1 mps 773 mmHg 88%
    04:00 +7°C° 0 mm 1 mps 773 mmHg 88%
    05:00 +7°C° 0 mm 1 mps 773 mmHg 88%
    06:00 +6°C° 0 mm 1 mps 773 mmHg 88%
    07:00 +8°C° 0 mm 1 mps 774 mmHg 84%
    08:00 +9°C° 0 mm 1 mps 774 mmHg 80%
    09:00 +10°C° 0 mm 1 mps 774 mmHg 75%
    10:00 +11°C° 0 mm 1 mps 775 mmHg 69%
    11:00 +13°C° 0 mm 1 mps 775 mmHg 63%
    12:00 +14°C° 0 mm 1 mps 775 mmHg 57%
    13:00 +15°C° 0 mm 1 mps 775 mmHg 55%
    14:00 +15°C° 0 mm 1 mps 775 mmHg 54%
    15:00 +15°C° 0 mm 1 mps 774 mmHg 52%
    16:00 +14°C° 0 mm 1 mps 775 mmHg 58%
    17:00 +12°C° 0 mm 2 mps 775 mmHg 64%
    18:00 +10°C° 0 mm 2 mps 775 mmHg 70%
    19:00 +9°C° 0 mm 2 mps 775 mmHg 72%
    20:00 +9°C° 0 mm 2 mps 775 mmHg 75%
    21:00 +8°C° 0 mm 2 mps 775 mmHg 78%
    22:00 +8°C° 0 mm 2 mps 775 mmHg 79%
    23:00 +8°C° 0 mm 2 mps 775 mmHg 79%

    23 February, Saturday

    Time Temperature Precipitation Wind Pressure Humidity
    00:00 +7°C° 0 mm 2 mps 775 mmHg 79%
    01:00 +7°C° 0 mm 2 mps 775 mmHg 78%
    02:00 +7°C° 0 mm 2 mps 775 mmHg 76%
    03:00 +7°C° 0 mm 2 mps 775 mmHg 75%
    04:00 +7°C° 0 mm 2 mps 775 mmHg 75%
    05:00 +6°C° 0 mm 2 mps 775 mmHg 75%
    06:00 +6°C° 0 mm 2 mps 774 mmHg 75%
    07:00 +7°C° 0 mm 2 mps 775 mmHg 73%
    08:00 +9°C° 0 mm 2 mps 775 mmHg 71%
    09:00 +10°C° 0 mm 2 mps 775 mmHg 69%
    10:00 +12°C° 0 mm 2 mps 775 mmHg 65%
    11:00 +14°C° 0 mm 2 mps 774 mmHg 61%
    12:00 +16°C° 0 mm 2 mps 774 mmHg 58%
    13:00 +16°C° 0 mm 2 mps 774 mmHg 57%
    14:00 +17°C° 0 mm 2 mps 773 mmHg 57%
    15:00 +18°C° 0 mm 2 mps 773 mmHg 57%
    16:00 +16°C° 0 mm 2 mps 773 mmHg 63%
    17:00 +14°C° 0 mm 2 mps 773 mmHg 69%
    18:00 +13°C° 0 mm 2 mps 773 mmHg 75%
    19:00 +12°C° 0 mm 2 mps 773 mmHg 76%
    20:00 +10°C° 0 mm 2 mps 773 mmHg 77%
    21:00 +10°C° 0 mm 2 mps 773 mmHg 79%
    22:00 +9°C° 0 mm 2 mps 773 mmHg 78%
    23:00 +9°C° 0 mm 2 mps 773 mmHg 77%

    24 February, Sunday

    Time Temperature Precipitation Wind Pressure Humidity
    00:00 +8°C° 0 mm 2 mps 773 mmHg 76%
    01:00 +8°C° 0 mm 2 mps 772 mmHg 76%
    02:00 +7°C° 0 mm 2 mps 772 mmHg 76%
    03:00 +7°C° 0 mm 2 mps 772 mmHg 75%
    04:00 +7°C° 0 mm 2 mps 772 mmHg 76%
    05:00 +7°C° 0 mm 2 mps 772 mmHg 77%
    06:00 +6°C° 0 mm 2 mps 772 mmHg 79%
    07:00 +7°C° 0 mm 2 mps 772 mmHg 76%
    08:00 +9°C° 0 mm 2 mps 773 mmHg 73%
    09:00 +10°C° 0 mm 3 mps 773 mmHg 71%
    10:00 +11°C° 0 mm 3 mps 773 mmHg 68%
    11:00 +13°C° 0 mm 3 mps 773 mmHg 65%
    12:00 +14°C° 0 mm 3 mps 773 mmHg 61%
    13:00 +16°C° 0 mm 3 mps 772 mmHg 63%
    14:00 +16°C° 0 mm 3 mps 772 mmHg 64%
    15:00 +16°C° 0 mm 3 mps 772 mmHg 65%
    16:00 +14°C° 0 mm 3 mps 772 mmHg 72%
    17:00 +12°C° 0 mm 3 mps 773 mmHg 78%
    18:00 +12°C° 0 mm 2 mps 773 mmHg 85%
    19:00 +10°C° 0 mm 2 mps 773 mmHg 86%
    20:00 +9°C° 0 mm 2 mps 773 mmHg 88%
    21:00 +9°C° 0 mm 2 mps 774 mmHg 90%
    22:00 +8°C° 0 mm 2 mps 774 mmHg 90%
    23:00 +8°C° 0 mm 2 mps 774 mmHg 91%
    Show more